{"data":{"norad_id":41380,"epoch":"2026-05-24T23:07:31.297152Z","epoch_age_seconds":77362,"freshness":"FRESH","line1":"1 41380U 16013A   26144.96355668 -.00000348  00000+0  00000+0 0  9996","line2":"2 41380   0.0127 355.7597 0002282  75.7308 266.2486  1.00271553 37203","mean_motion":1.00271553,"eccentricity":0.0002282,"inclination_deg":0.0127,"raan_deg":355.7597,"arg_perigee_deg":75.7308,"mean_anomaly_deg":266.2486,"bstar":0,"rev_number":3720,"period_min":1436.1002267513,"perigee_km":35777.037992663,"apogee_km":35796.282006013,"semimajor_km":42164.796999338,"source":"CELESTRAK","updated_at":"2026-05-25T13:38:14.511820Z"}}